Location: Hamilton
(37.7830°S, 175.2830°E)
Time: 08:11:46
(UTC+13:00)

Meteor 1-26 Rocket - Pass Details

Date: 24 January 2019
Orbit: 818 x 917 km, 81.3° (Epoch: 15 October)

Event Time Altitude Azimuth Distance (km) Brightness Sun altitude
Exits shadow 22:56:26 43° 10° (N) 1,240 4.6 -22.4°
Maximum altitude 22:58:25 75° 83° (E) 926 4.2 -22.7°
Drops below altitude 10° 23:04:12 10° 167° (SSE) 2,540 7.2 -23.4°
Sets 23:06:37 0° 169° (SSE) 3,469 8.0 -23.7°
